Flag for Australia Weather past 2 weeks in Melbourne, Victoria, Australia

70 °F


Feels Like: 70 °F
Forecast: 51 / 62 °F
Wind: 17 mph from West

Location: Melbourne Airport

Current Time: Dec 1, 2015 at 3:45:13 PM

Latest Report: Dec 1, 2015 at 3:00 PM

Visibility: 10 mi

Pressure: 29.77 "Hg

Humidity: 31%

Dew point: 37 °F

Location of MelbourneLocation

Historic Weather in Melbourne — Graph


Melbourne temperature yesterday

Maximum temperature yesterday: 90 °F (at 4:00 PM)
Minimum temperature yesterday: 48 °F (at 1:00 AM)
Average temperature yesterday: 68 °F

Past Weeks' High & Low Weather Summary

High93 °F (Nov 25, 4:00 PM)94% (Nov 20, 4:30 AM)30.21 "Hg (Nov 20, 4:30 AM)
Low41 °F (Nov 27, 4:00 AM)10% (Nov 17, 4:00 PM)29.36 "Hg (Nov 25, 6:02 PM)
Average63 °F58%29.91 "Hg
* Reported Nov 16 2:00 PM — Dec 1 2:00 PM, Melbourne, Weather by CustomWeather, © 2015

Note: Actual official high and low records may vary slightly from our data, if they occured in-between our weather recording intervals... More about our weather records


Melbourne weather history for previous 24 hours

Time TempWeatherWind HumidityBarometerVisibility
2:00 PM
Tue, Dec 1
72 °FSunny.15 mph25%29.74 "Hg10 mi
1:30 PM72 °FSunny.14 mph23%29.74 "Hg10 mi
1:00 PM72 °FSunny.8 mph23%29.74 "Hg10 mi
12:00 PM70 °FSunny.14 mph27%29.77 "Hg10 mi
11:30 AM70 °FPassing clouds.13 mph27%29.77 "HgN/A
11:00 AM68 °FPassing clouds.14 mph33%29.77 "HgN/A
10:30 AM66 °FPassing clouds.10 mph37%29.77 "HgN/A
10:00 AM64 °FPassing clouds.13 mph43%29.77 "HgN/A
9:30 AM63 °FPassing clouds.10 mph49%29.77 "HgN/A
9:00 AM61 °FScattered clouds.12 mph52%29.77 "HgN/A
8:00 AM59 °FPassing clouds.8 mph72%29.74 "HgN/A
7:30 AM57 °FScattered clouds.7 mph77%29.74 "HgN/A
7:00 AM55 °FScattered clouds.9 mph82%29.74 "HgN/A
6:30 AM55 °FBroken clouds.7 mph88%29.71 "HgN/A
6:00 AM55 °FPartly sunny.7 mph88%29.71 "HgN/A
5:30 AM57 °FPassing clouds.5 mph82%29.71 "HgN/A
5:00 AM57 °FPassing clouds.5 mph88%29.68 "HgN/A
4:30 AM57 °FPassing clouds.6 mph94%29.68 "HgN/A
4:00 AM57 °FPassing clouds.5 mph94%29.65 "HgN/A
3:30 AM59 °FLight rain. Passing clouds.6 mph82%29.68 "HgN/A
3:00 AM59 °FPassing clouds.6 mph82%29.65 "HgN/A
2:30 AM59 °FPassing clouds.2 mph82%29.65 "HgN/A
2:00 AM59 °FPassing clouds.6 mph82%29.65 "HgN/A
1:30 AM59 °FPassing clouds.9 mph82%29.65 "HgN/A
1:00 AM61 °FLight rain. Passing clouds.14 mph77%29.65 "HgN/A
12:30 AM61 °FPassing clouds.17 mph77%29.68 "HgN/A
12:00 AM61 °FPartly cloudy.15 mph77%29.65 "HgN/A
11:30 PM
Mon, Nov 30
64 °FClear.17 mph64%29.65 "Hg10 mi
11:00 PM66 °FClear.9 mph64%29.62 "Hg10 mi
10:30 PM68 °FClear.15 mph64%29.62 "Hg10 mi
10:00 PM70 °FPassing clouds.5 mph64%29.59 "HgN/A
9:30 PM72 °FClear.14 mph57%29.56 "Hg10 mi
9:00 PM72 °FClear.17 mph61%29.56 "Hg10 mi
8:30 PM70 °FClear.17 mph64%29.56 "Hg10 mi
8:00 PM72 °FSunny.14 mph65%29.56 "Hg10 mi
7:30 PM72 °FBroken clouds.15 mph65%29.56 "HgN/A
7:00 PM82 °FSunny.32 mph28%29.59 "Hg10 mi
6:30 PM88 °FSunny.26 mph18%29.50 "Hg10 mi
6:00 PM88 °FSunny.24 mph18%29.50 "Hg10 mi
5:30 PM88 °FSunny.29 mph18%29.50 "Hg10 mi
5:00 PM90 °FSunny.32 mph16%29.53 "Hg10 mi
4:30 PM90 °FSunny.30 mph16%29.56 "Hg10 mi
4:00 PM90 °FSunny.29 mph17%29.56 "Hg10 mi
3:00 PM88 °FSunny.23 mph18%29.62 "Hg10 mi
Weather by CustomWeather, © 2015

See weather overviewHow to use our weather pages